Louisville, KY

10:21 PM EST on December 09, 2016 (GMT -0500)
Bowman

Weather History for KLOU - October, 2014

Change the Weather History Date:

Friday, October 3, 2014

  Actual Average Record
Temperature  
Mean Temperature 64 °F 62 °F  
Max Temperature 78 °F 73 °F 91 °F (1959)
Min Temperature 49 °F 52 °F 32 °F (1974)
Degree Days  
Heating Degree Days 1 5  
Month to date heating degree days 1 13  
Since 1 July heating degree days 33 49  
Cooling Degree Days 0 2  
Month to date cooling degree days 15 6  
Year to date cooling degree days 1527 1419  
Growing Degree Days 14 (Base 50)    
Moisture  
Dew Point 58 °F    
Average Humidity 72    
Maximum Humidity 87    
Minimum Humidity 56    
Precipitation  
Precipitation 0.23 in 0.09 in 0.96 in (1956)
Month to date precipitation 0.23 0.27  
Year to date precipitation 33.83 34.97  
Sea Level Pressure  
Sea Level Pressure 29.78 in    
Wind  
Wind Speed 13 mph (WSW)    
Max Wind Speed 29 mph    
Max Gust Speed 39 mph    
Visibility 10 miles    
Events Rain    
T = Trace of Precipitation, MM = Missing Value Source: NWS Daily Summary

Daily Weather History Graph

Daily Weather History Graph

Search for Another Location

Airport or City:

Trip Planner

Search our weather history database for the weather conditions in past years. The results will help you decide how hot, cold, wet, or windy it might be!

Date:

Astronomy

Oct. 03, 2014 Rise Set
Actual Time 7:40 AM EDT 7:22 PM EDT
Civil Twilight 7:13 AM EDT 7:48 PM EDT
Nautical Twilight 6:43 AM EDT 8:19 PM EDT
Astronomical Twilight 6:12 AM EDT 8:50 PM EDT
Moon 4:11 PM EDT (10/3) 2:04 AM EDT (10/3)
Length of Visible Light 12h 34m
Length of Day
11h 42m
Waxing Gibbous, 71% of the Moon is Illuminated
Oct 3
Waxing Gibbous
Oct 8
Full
Oct 15
Last Quarter
Oct 23
New
Oct 30
First Quarter

Hourly Weather History & Observations

Time (EDT) Temp. Dew Point Humidity Pressure Visibility Wind Dir Wind Speed Gust Speed Precip Events Conditions
12:53 AM 75.9 °F 61.0 °F 60% 29.77 in 10.0 mi SE 8.1 mph - N/A   Overcast
1:53 AM 77.0 °F 61.0 °F 58% 29.73 in 10.0 mi SSE 9.2 mph - N/A   Overcast
2:53 AM 77.0 °F 62.1 °F 60% 29.71 in 10.0 mi South 15.0 mph 24.2 mph N/A   Mostly Cloudy
3:53 AM 73.9 °F 64.9 °F 73% 29.67 in 10.0 mi South 11.5 mph 20.7 mph 0.00 in   Overcast
4:53 AM 75.0 °F 64.9 °F 71% 29.64 in 10.0 mi South 11.5 mph 21.9 mph 0.00 in   Overcast
5:53 AM 70.0 °F 66.9 °F 90% 29.63 in 10.0 mi SSE 9.2 mph - 0.07 in Rain Light Rain
6:40 AM 70.0 °F 66.9 °F 90% 29.67 in 10.0 mi South 6.9 mph 19.6 mph 0.00 in   Mostly Cloudy
6:53 AM 70.0 °F 66.9 °F 90% 29.66 in 10.0 mi South 6.9 mph - 0.00 in   Overcast
7:38 AM 68.0 °F 64.0 °F 87% 29.71 in 10.0 mi SW 10.4 mph - 0.01 in   Overcast
7:53 AM 68.0 °F 64.9 °F 90% 29.71 in 10.0 mi SSW 11.5 mph - 0.01 in   Overcast
8:53 AM 66.2 °F 62.6 °F 88% 29.74 in 10.0 mi SSW 10.4 mph - N/A   Overcast
9:53 AM 66.9 °F 62.1 °F 84% 29.74 in 10.0 mi SW 12.7 mph 21.9 mph N/A   Overcast
10:53 AM 66.9 °F 62.1 °F 84% 29.74 in 10.0 mi WSW 16.1 mph 21.9 mph N/A   Overcast
11:40 AM 66.9 °F 62.1 °F 84% 29.76 in 10.0 mi WSW 10.4 mph 17.3 mph N/A   Overcast
11:53 AM 68.0 °F 62.1 °F 81% 29.74 in 10.0 mi WSW 11.5 mph - N/A   Overcast
12:04 PM 68.0 °F 62.1 °F 81% 29.75 in 10.0 mi SW 9.2 mph - N/A   Overcast
12:44 PM 68.0 °F 61.0 °F 78% 29.76 in 10.0 mi WSW 15.0 mph 26.5 mph N/A   Overcast
12:53 PM 68.0 °F 60.8 °F 78% 29.77 in 10.0 mi WSW 13.8 mph 27.6 mph N/A   Overcast
1:40 PM 66.9 °F 61.0 °F 81% 29.77 in 3.0 mi West 19.6 mph 27.6 mph 0.01 in Rain Rain
1:53 PM 64.9 °F 61.0 °F 87% 29.76 in 5.0 mi WSW 9.2 mph - 0.02 in Rain Light Rain
2:44 PM 68.0 °F 61.0 °F 78% 29.75 in 10.0 mi West 15.0 mph - 0.00 in   Mostly Cloudy
2:53 PM 66.0 °F 60.1 °F 81% 29.75 in 7.0 mi WNW 17.3 mph 20.7 mph 0.01 in Rain Light Rain
3:20 PM 64.0 °F 59.0 °F 84% 29.78 in 10.0 mi West 18.4 mph 25.3 mph 0.01 in Rain Light Rain
3:41 PM 64.0 °F 57.9 °F 80% 29.78 in 10.0 mi WNW 18.4 mph - 0.01 in Rain Light Rain
3:53 PM 64.0 °F 57.0 °F 78% 29.78 in 10.0 mi West 13.8 mph 23.0 mph 0.01 in Rain Light Rain
4:06 PM 64.0 °F 55.9 °F 75% 29.78 in 10.0 mi West 18.4 mph 21.9 mph 0.00 in Rain Light Rain
4:34 PM 63.0 °F 55.0 °F 75% 29.80 in 10.0 mi WNW 12.7 mph - 0.00 in Rain Light Rain
4:53 PM 63.0 °F 54.0 °F 72% 29.80 in 10.0 mi West 15.0 mph 25.3 mph 0.00 in   Overcast
5:53 PM 66.0 °F 52.0 °F 60% 29.80 in 10.0 mi West 11.5 mph 23.0 mph N/A   Scattered Clouds
6:53 PM 64.9 °F 48.9 °F 56% 29.79 in 10.0 mi West 9.2 mph - N/A   Clear
7:53 PM 64.0 °F 48.9 °F 58% 29.81 in 10.0 mi West 10.4 mph - 0.00 in Rain Light Rain
8:53 PM 55.9 °F 52.0 °F 87% 29.87 in 10.0 mi West 11.5 mph - 0.10 in Rain Light Rain
9:53 PM 53.1 °F 48.0 °F 83% 29.92 in 10.0 mi WNW 11.5 mph 19.6 mph 0.01 in   Overcast
10:00 PM 53.1 °F 46.9 °F 80% 29.92 in 10.0 mi West 13.8 mph - N/A   Overcast
10:21 PM 52.0 °F 45.0 °F 77% 29.93 in 10.0 mi WNW 15.0 mph 23.0 mph N/A   Overcast
10:53 PM 51.1 °F 42.1 °F 71% 29.94 in 10.0 mi WNW 16.1 mph 20.7 mph N/A   Mostly Cloudy
11:40 PM 50.0 °F 42.1 °F 74% 29.95 in 10.0 mi WNW 12.7 mph 23.0 mph N/A   Overcast
11:53 PM 50.0 °F 41.0 °F 71% 29.95 in 10.0 mi WNW 15.0 mph - N/A   Overcast